FW8143 Weather Reports


Display with metric or nautical units.
time (UTC)temp
F
wind
direction
speed
MPH
gust
MPH
rain 1hr
in
rain 24hr
in
rain mn
in
humidity
%
barometer
mb
20260504020914 59 211 4.0 9.0 0.00 0.00 0.00 28 1022.5
20260504020156 60 236 5.0 9.0 0.00 0.00 0.00 28 1022.4
20260504015655 60 233 4.0 9.0 0.00 0.00 0.00 27 1022.3
20260504015149 61 190 4.0 10.0 0.00 0.00 0.00 27 1022.3
20260504014643 61 221 7.0 15.0 0.00 0.00 0.00 26 1022.3
20260504014355 62 244 6.0 15.0 0.00 0.00 0.00 26 1022.3
20260504013854 62 192 5.0 12.0 0.00 0.00 0.00 26 1022.3
20260504013125 63 248 5.0 11.0 0.00 0.00 0.00 25 1022.3
20260504012619 63 245 5.0 10.0 0.00 0.00 0.00 25 1022.3
20260504012112 63 235 5.0 10.0 0.00 0.00 0.00 25 1022.3
20260504011607 63 235 7.0 13.0 0.00 0.00 0.00 24 1022.3
20260504011101 64 225 6.0 14.0 0.00 0.00 0.00 24 1022.4
20260504010556 64 240 6.0 15.0 0.00 0.00 0.00 24 1022.4
20260504010049 64 211 5.0 15.0 0.00 0.00 0.00 24 1022.4
20260504005543 65 217 5.0 11.0 0.00 0.00 0.00 24 1022.4
20260504005038 65 262 6.0 11.0 0.00 0.00 0.00 24 1022.5
20260504005019 65 233 7.0 15.0 0.00 0.00 0.00 24 1022.4
20260504004025 65 238 8.0 15.0 0.00 0.00 0.00 24 1022.5
20260504003519 65 234 8.0 16.0 0.00 0.00 0.00 23 1022.4
20260504003013 65 232 7.0 16.0 0.00 0.00 0.00 23 1022.5
20260504002508 66 221 6.0 15.0 0.00 0.00 0.00 23 1022.5
20260504002001 66 280 7.0 15.0 0.00 0.00 0.00 22 1022.6
20260504001455 66 240 8.0 15.0 0.00 0.00 0.00 22 1022.5
20260504000949 66 238 7.0 14.0 0.00 0.00 0.00 23 1022.5
20260504000444 67 242 9.0 18.0 0.00 0.00 0.00 22 1022.6
20260503235937 67 275 8.0 18.0 0.00 0.00 0.00 22 1022.6
20260503235910 67 271 4.0 13.0 0.00 0.00 0.00 22 1022.6
20260503234925 67 309 5.0 15.0 0.00 0.00 0.00 21 1022.6
20260503234419 67 300 7.0 15.0 0.00 0.00 0.00 21 1022.8
20260503234410 67 224 5.0 14.0 0.00 0.00 0.00 22 1022.8
20260503233628 67 239 6.0 20.0 0.00 0.00 0.00 22 1022.8
20260503232902 67 182 7.0 20.0 0.00 0.00 0.00 22 1022.9
20260503232355 68 277 7.0 18.0 0.00 0.00 0.00 23 1022.8
20260503231849 68 274 9.0 18.0 0.00 0.00 0.00 22 1022.9
20260503231343 68 250 8.0 18.0 0.00 0.00 0.00 22 1022.9
20260503230838 68 183 6.0 13.0 0.00 0.00 0.00 22 1023.0
20260503230331 68 222 7.0 15.0 0.00 0.00 0.00 22 1023.0
20260503225825 68 321 9.0 18.0 0.00 0.00 0.00 22 1023.0
20260503225537 69 281 8.0 18.0 0.00 0.00 0.00 21 1023.2
20260503224813 69 263 7.0 17.0 0.00 0.00 0.00 21 1023.2
20260503224307 69 213 8.0 17.0 0.00 0.00 0.00 21 1023.3
20260503223802 69 190 6.0 14.0 0.00 0.00 0.00 21 1023.5
20260503223255 69 211 7.0 18.0 0.00 0.00 0.00 21 1023.4
20260503222749 69 193 7.0 18.0 0.00 0.00 0.00 20 1023.4
20260503222243 69 250 8.0 17.0 0.00 0.00 0.00 20 1023.5
20260503221737 70 38 7.0 17.0 0.00 0.00 0.00 20 1023.5
20260503221231 70 260 7.0 18.0 0.00 0.00 0.00 20 1023.5
20260503220725 69 198 6.0 18.0 0.00 0.00 0.00 20 1023.7
20260503220219 69 242 6.0 13.0 0.00 0.00 0.00 21 1023.7
20260503215713 69 223 6.0 16.0 0.00 0.00 0.00 21 1023.8
20260503215208 69 240 6.0 15.0 0.00 0.00 0.00 20 1023.8
20260503214701 69 267 8.0 17.0 0.00 0.00 0.00 20 1023.9
20260503214155 69 232 8.0 17.0 0.00 0.00 0.00 20 1024.0
20260503213649 68 217 8.0 17.0 0.00 0.00 0.00 21 1024.0
20260503213150 67 254 9.0 20.0 0.00 0.00 0.00 21 1024.3
20260503212650 67 268 8.0 20.0 0.00 0.00 0.00 22 1024.3
20260503212148 67 196 8.0 18.0 0.00 0.00 0.00 22 1024.4
20260503211906 68 271 8.0 18.0 0.00 0.00 0.00 21 1024.4
20260503211149 69 250 5.0 13.0 0.00 0.00 0.00 21 1024.4
20260503210647 69 271 7.0 13.0 0.00 0.00 0.00 22 1024.7
20260503210147 69 243 8.0 14.0 0.00 0.00 0.00 22 1024.8
20260503205648 69 322 8.0 17.0 0.00 0.00 0.00 21 1024.8
20260503205146 69 229 8.0 17.0 0.00 0.00 0.00 21 1024.8
20260503204908 69 248 8.0 18.0 0.00 0.00 0.00 21 1024.9
20260503204145 69 211 8.0 18.0 0.00 0.00 0.00 21 1025.0
20260503203646 69 223 5.0 12.0 0.00 0.00 0.00 22 1025.2
20260503203146 69 227 7.0 14.0 0.00 0.00 0.00 21 1025.2
20260503202907 69 169 7.0 14.0 0.00 0.00 0.00 21 1025.3
20260503202145 69 263 7.0 13.0 0.00 0.00 0.00 22 1025.3
20260503201646 68 240 8.0 13.0 0.00 0.00 0.00 23 1025.4
20260503201146 68 208 7.0 14.0 0.00 0.00 0.00 23 1025.7
20260503200646 67 244 7.0 15.0 0.00 0.00 0.00 22 1025.7
20260503200405 67 198 7.0 15.0 0.00 0.00 0.00 23 1025.7
20260503195646 67 215 7.0 15.0 0.00 0.00 0.00 24 1025.8
20260503195145 67 244 7.0 15.0 0.00 0.00 0.00 24 1025.8
20260503194646 67 212 7.0 19.0 0.00 0.00 0.00 24 1025.9
20260503194146 67 236 8.0 19.0 0.00 0.00 0.00 25 1026.0
20260503193910 67 252 4.0 15.0 0.00 0.00 0.00 25 1026.0
20260503193146 66 335 3.0 11.0 0.00 0.00 0.00 25 1026.0
20260503192906 66 219 3.0 11.0 0.00 0.00 0.00 22 1026.0
20260503192146 66 290 4.0 11.0 0.00 0.00 0.00 23 1026.2
20260503191909 66 272 6.0 14.0 0.00 0.00 0.00 22 1026.4
20260503191142 66 227 5.0 14.0 0.00 0.00 0.00 22 1026.3
20260503190641 65 259 4.0 13.0 0.00 0.00 0.00 21 1026.5
20260503190142 65 288 6.0 13.0 0.00 0.00 0.00 24 1026.5
20260503185909 65 332 6.0 11.0 0.00 0.00 0.00 25 1026.7
20260503185141 64 257 5.0 15.0 0.00 0.00 0.00 26 1026.8
20260503184642 64 251 6.0 15.0 0.00 0.00 0.00 25 1026.9
20260503184143 64 72 7.0 16.0 0.00 0.00 0.00 25 1027.2
20260503183643 63 199 7.0 16.0 0.00 0.00 0.00 25 1027.2
20260503183138 62 232 6.0 15.0 0.00 0.00 0.00 25 1027.3
20260503182638 62 279 4.0 12.0 0.00 0.00 0.00 27 1027.4
20260503182139 62 309 5.0 13.0 0.00 0.00 0.00 26 1027.6
20260503181638 62 306 6.0 13.0 0.00 0.00 0.00 27 1027.7
20260503181138 61 348 3.0 12.0 0.00 0.00 0.00 27 1027.7
20260503180638 61 296 3.0 6.0 0.00 0.00 0.00 27 1027.7
20260503180138 61 266 4.0 16.0 0.00 0.00 0.00 27 1027.7
20260503175637 61 134 4.0 16.0 0.00 0.00 0.00 27 1027.9
20260503175139 61 298 4.0 11.0 0.00 0.00 0.00 28 1027.8
20260503174632 61 279 5.0 14.0 0.00 0.00 0.00 29 1027.9
20260503174126 60 286 5.0 14.0 0.00 0.00 0.00 28 1027.9
20260503173620 60 238 4.0 11.0 0.00 0.00 0.00 31 1028.1
20260503173608 60 237 3.0 10.0 0.00 0.00 0.00 33 1028.2
20260503172608 59 281 4.0 13.0 0.00 0.00 0.00 33 1028.3
20260503172103 59 292 4.0 13.0 0.00 0.00 0.00 32 1028.3
20260503171556 59 205 4.0 10.0 0.00 0.00 0.00 34 1028.3
20260503171050 58 269 5.0 11.0 0.00 0.00 0.00 34 1028.3
20260503170804 58 222 4.0 11.0 0.00 0.00 0.00 35 1028.4
20260503170255 58 277 4.0 9.0 0.00 0.00 0.00 36 1028.4
20260503150823 49 350 3.0 7.0 0.00 0.00 0.00 55 1028.9
20260503150316 48 283 2.0 7.0 0.00 0.00 0.00 56 1028.9
20260503140200 42 102 2.0 4.0 0.00 0.00 0.00 74 1028.9
20260503131100 39 105 5.0 8.0 0.00 0.00 0.00 80 1029.4
20260503130554 39 82 5.0 8.0 0.00 0.00 0.00 80 1029.4
20260503110712 39 91 4.0 7.0 0.00 0.00 0.00 76 1028.8
20260503100151 39 101 2.0 4.0 0.00 0.00 0.00 74 1029.1
20260503081427 40 77 6.0 13.0 0.00 0.00 0.00 72 1029.3
20260503080926 41 100 6.0 13.0 0.00 0.00 0.00 72 1029.4
20260503080419 41 112 6.0 10.0 0.00 0.00 0.00 72 1029.4
20260503072355 42 117 6.0 10.0 0.00 0.01 0.00 71 1029.8
20260503071854 42 96 5.0 10.0 0.00 0.01 0.00 70 1029.8
20260503071616 42 112 5.0 11.0 0.00 0.01 0.00 70 1029.8
20260503070855 42 77 6.0 11.0 0.00 0.01 0.00 69 1029.9
20260503070355 42 104 5.0 9.0 0.00 0.01 0.00 69 1029.9
20260503060330 43 89 4.0 7.0 0.00 0.01 0.00 68 1029.8
20260503054824 44 132 2.0 5.0 0.00 0.01 0.01 66 1029.8
20260503054324 44 96 2.0 6.0 0.00 0.01 0.01 66 1029.8
20260503053825 44 107 3.0 8.0 0.00 0.01 0.01 66 1029.8
20260503053324 44 102 3.0 8.0 0.00 0.01 0.01 65 1029.7
20260503053045 44 82 4.0 9.0 0.00 0.01 0.01 64 1029.7
20260503052321 44 139 4.0 9.0 0.00 0.01 0.01 64 1029.7
20260503051821 44 99 4.0 8.0 0.00 0.01 0.01 63 1029.7
20260503051320 45 101 4.0 9.0 0.00 0.01 0.01 63 1029.6
20260503050820 45 115 4.0 9.0 0.00 0.01 0.01 62 1029.7
20260503050321 45 87 4.0 9.0 0.00 0.01 0.01 62 1029.6
20260503045821 45 82 5.0 9.0 0.00 0.01 0.01 61 1029.6
20260503045316 45 111 6.0 11.0 0.00 0.01 0.01 61 1029.6
20260503044817 45 99 6.0 11.0 0.00 0.01 0.01 61 1029.6
20260503044317 46 98 5.0 10.0 0.00 0.01 0.01 61 1029.6
20260503043817 46 159 4.0 9.0 0.00 0.01 0.01 61 1029.6
20260503043317 46 117 3.0 9.0 0.00 0.01 0.01 60 1029.6
20260503042817 46 96 2.0 7.0 0.00 0.01 0.01 60 1029.6
20260503042317 47 109 3.0 12.0 0.00 0.01 0.01 61 1029.6
20260503041817 47 172 3.0 12.0 0.00 0.01 0.01 60 1029.6
20260503041317 47 142 4.0 11.0 0.00 0.01 0.01 59 1029.4
20260503041034 47 150 5.0 11.0 0.00 0.01 0.01 57 1029.6
20260503040313 48 180 4.0 9.0 0.00 0.01 0.01 52 1029.4
20260503035812 48 126 2.0 9.0 0.00 0.01 0.01 47 1029.4
20260503035312 49 153 2.0 5.0 0.00 0.01 0.01 44 1029.3
20260503035031 49 115 2.0 5.0 0.00 0.01 0.01 44 1029.2
20260503034313 49 135 2.0 9.0 0.00 0.01 0.01 46 1029.2
20260503033812 49 103 3.0 10.0 0.00 0.01 0.01 46 1029.1
20260503033312 49 136 4.0 10.0 0.00 0.01 0.01 48 1028.9
20260503032813 50 153 6.0 13.0 0.00 0.01 0.01 48 1028.8
20260503032305 50 188 7.0 14.0 0.00 0.01 0.01 47 1028.8
20260503031759 50 196 7.0 15.0 0.00 0.01 0.01 46 1028.7
20260503031254 51 167 4.0 15.0 0.00 0.01 0.01 40 1028.7
20260503031014 51 175 3.0 7.0 0.00 0.01 0.01 38 1028.6
20260503030241 51 148 3.0 7.0 0.00 0.01 0.01 36 1028.4
20260503025958 51 167 3.0 7.0 0.00 0.01 0.01 36 1028.3
20260503025230 52 146 3.0 8.0 0.00 0.01 0.01 36 1028.2
20260503024724 52 150 4.0 8.0 0.00 0.01 0.01 35 1028.2
20260503024217 53 148 4.0 7.0 0.00 0.01 0.01 35 1028.1
20260503023712 53 119 4.0 7.0 0.00 0.01 0.01 35 1027.9
20260503023434 53 143 3.0 7.0 0.00 0.01 0.01 35 1027.9
20260503022708 54 144 3.0 8.0 0.00 0.01 0.01 34 1027.9
20260503022208 54 156 4.0 8.0 0.00 0.01 0.01 33 1027.9
20260503021708 55 144 3.0 7.0 0.00 0.01 0.01 32 1027.9
20260503021430 55 142 1.0 4.0 0.00 0.01 0.01 32 1027.9